User: anonymous   Login
Location: Newark
(45.6000°N, 12.8833°E)
Time: 21:00:32
(UTC+00:00)
Language:

Tiros 1 despin weight - Orbit

View from above orbital plane
View from above orbital plane
View from above satellite
View from above satellite

Ground track
Ground track

The orbit data is extracted from the following two-line orbital elements,

1   115U 60002D   19321.15868085 -.00000003  00000-0  26889-4 0  9993
2   115  48.1663 219.8211 0034513  28.0918 332.1848 14.83508541181306
Epoch (UTC): 17 November 2019 03:48:30
Eccentricity: 0.0034513
inclination: 48.1663°
perigee height: 594 km
apogee height: 642 km
right ascension of ascending node: 219.8211°
argument of perigee: 28.0918°
revolutions per day: 14.83508541
mean anomaly at epoch: 332.1848°
orbit number at epoch: 18130

The dashed part of the orbit path shows where the satellite is in the earth's shadow,  

DLR